This is the latest recevied weather packets stored in our database for station/object IU1OLT-7. If no packets are shown the sender has not sent any weather packets the latest 10 day(s).
| Time | Temp. | Humidity | Pressure | Rain* | Wind** | Luminosity | Snow |
|---|---|---|---|---|---|---|---|
| 1787721835 | 21.67° C | 70% | 1022.6 hPa | - | - | - | - |
| 1787720034 | 21.11° C | 77% | 1022.5 hPa | - | - | - | - |
| 1787718234 | 22.22° C | 69% | 1022.2 hPa | - | - | - | - |
| 1787716435 | 22.22° C | 70% | 1022 hPa | - | - | - | - |
| 1787715534 | 22.22° C | 70% | 1022 hPa | - | - | - | - |
| 1787714634 | 22.22° C | 69% | 1022 hPa | - | - | - | - |
| 1787713734 | 22.22° C | 70% | 1022.1 hPa | - | - | - | - |
| 1787712834 | 22.78° C | 68% | 1022.1 hPa | - | - | - | - |
| 1787711928 | 22.78° C | 69% | 1022.1 hPa | - | - | - | - |
| 1787711034 | 22.22° C | 72% | 1022 hPa | - | - | - | - |
| 1787709234 | 22.78° C | 71% | 1021.9 hPa | - | - | - | - |
| 1787708334 | 22.78° C | 69% | 1021.8 hPa | - | - | - | - |
| 1787707434 | 22.22° C | 72% | 1021.6 hPa | - | - | - | - |
| 1787706534 | 22.78° C | 70% | 1021.6 hPa | - | - | - | - |
| 1787705628 | 22.22° C | 71% | 1021.5 hPa | - | - | - | - |
| 1787704728 | 22.78° C | 70% | 1021.5 hPa | - | - | - | - |
| 1787703828 | 22.22° C | 72% | 1021.5 hPa | - | - | - | - |
| 1787702928 | 22.22° C | 71% | 1021.6 hPa | - | - | - | - |
| 1787702028 | 22.22° C | 71% | 1021.6 hPa | - | - | - | - |
| 1787701128 | 22.78° C | 67% | 1021.7 hPa | - | - | - | - |
| 1787700228 | 22.22° C | 69% | 1021.7 hPa | - | - | - | - |
| 1787699328 | 22.22° C | 69% | 1021.6 hPa | - | - | - | - |
| 1787698428 | 22.22° C | 68% | 1021.5 hPa | - | - | - | - |
| 1787697528 | 22.22° C | 67% | 1021.6 hPa | - | - | - | - |
| 1787696624 | 22.22° C | 66% | 1021.6 hPa | - | - | - | - |
* Rain since midnight (hover to see other rain measurements)
** Current wind speed in m/s (hover to see current wind gust speed)